Regional Weather Roundup
Issued by NWS Sioux Falls, SD

Home | Current Version | Previous Version | Text Only | Print | Product List | Glossary On
Versions: 1 2 3 4 5 6 7 8 9 10 11 12 13 14 15 16 17 18 19 20 21 22 23 24 25 26 27 28 29 30 31 32 33 34 35 36 37 38 39 40 41 42 43 44 45 46 47 48 49 50
000
ASUS43 KFSD 162010
RWRFSD

WEATHER ROUNDUP FOR SE SOUTH DAKOTA/SW MINNESOTA/NW IOWA
NATIONAL WEATHER SERVICE SIOUX FALLS SD
200 PM CST MON JAN 16 2017

NOTE: "FAIR" INDICATES FEW OR NO CLOUDS BELOW 12,000 FEET WITH NO
SIGNIFICANT WEATHER AND OR OBSTRUCTIONS TO VISIBILITY.


SDZ038>040-050-052>070-162100-
SOUTHEAST SOUTH DAKOTA

CITY           SKY/WX    TMP DP  RH WIND       PRES   REMARKS
BROOKINGS      CLOUDY    31  23  72 CALM      29.99F
CHAMBERLAIN    CLOUDY    23  14  69 W7        30.05S WCI  15
HURON          CLOUDY    20  14  77 NW10      30.03F WCI   9
MADISON        CLOUDY    30  28  93 NE6         N/A  WCI  24
MITCHELL       CLOUDY    27  19  72 NW12      30.04F WCI  17
SIOUX FALLS    FRZ RAIN  31  24  75 N6        29.98F WCI  25
WINNER         FAIR      29  14  53 NW17      30.04F WCI  17
YANKTON        CLOUDY    30  25  80 CALM      29.99F
$$

MNZ071-072-080-081-089-090-097-098-162100-
SOUTHWEST MINNESOTA

CITY           SKY/WX    TMP DP  RH WIND       PRES   REMARKS
FAIRMONT       MIX PCPN  31  29  92 NE8       30.00F FOG     WCI  23
JACKSON        FOG       28  28 100 NE10      29.98F VSB 1/4 WCI  19
LUVERNE        LGT RAIN  30  23  74 NE10      29.98F WCI  21
MARSHALL       CLOUDY    31  22  69 NE5       30.03F WCI  26
MONTEVIDEO     CLOUDY    28  21  74 CALM      30.05F
PIPESTONE      CLOUDY    32  27  80 NE7       29.96F WCI  26
REDWOOD FALLS  CLOUDY    31  24  75 VRB5      30.03F WCI  26
TRACY          CLOUDY    30  26  83 NE5       30.01F WCI  25
WINDOM         CLOUDY    30  28  93 NE6       29.99F FOG     WCI  24
WORTHINGTON    CLOUDY    30  27  88 N12       29.98F FOG     WCI  20
$$

IAZ001>003-012>014-020>022-031-032-NEZ013-014-SDZ071-162100-
NORTHWEST IOWA

CITY           SKY/WX    TMP DP  RH WIND       PRES   REMARKS
CHEROKEE       MIX PCPN  32  32 100 NE7       29.95F WCI  26
DENISON        CLOUDY    32  32 100 NE9       29.88F FOG     WCI  24
ESTHERVILLE    FRZ RAIN  29  29 100 NE13      29.96F FOG     WCI  19
LE MARS        LGT RAIN  32  32 100 NE9       29.97F WCI  24
ORANGE CITY    MIX PCPN  30  30 100 NE6       29.95F WCI  24
SHELDON        LGT RAIN  30  32 100 NE10      29.95F VSB 1   WCI  21
SIOUX CITY     LGT RAIN  34  31  88 N12       29.95F FOG     WCI  25
SPENCER        FRZ RAIN  32  30  92 NE13      29.96F WCI  22
STORM LAKE     LGT RAIN  32  30  93 NE15      29.93F WCI  22
$$

ABBREVIATIONS USED IN REMARKS
   TC - TEMPERATURE IN CELSIUS
  WCI - WIND CHILL INDEX
   HX - HEAT INDEX
  VSB - VISIBILITY





USA.gov is the U.S. government's official web portal to all federal, state and local government web resources and services.